EDDNLOWI

Guest
Details From EDDN - Nurnberg
To LOWI - Innsbruck Kranebitten
Flight Number -
Tags Routegen
Created
Modified
Stats Distance 135 nm / 250 km
Max Altitude 0 ft / 0 m
Waypoints 2
Social Downloads 3
Likes 0
Share VATSIM

Download

Looking for another format? Having issues loading an existing format? Contact us
Advertisement - Login to hide

Notes

None

Route

EDDN LOWI

ID Type Via Altitude (ft/m) Position (lat/lon) Dist (leg/tot) Name
O EDDN APT - 0 / 0 49.50055 / 11.05918 - / 0 nm
O LOWI APT - 0 / 0 47.25883 / 11.33091 135 / 135 nm

Altitude Profile

Advertisement - Login to hide

EDDN

Details ICAO EDDN (NUE)
Name Nuernberg Airport
Region Germany - Civil
Timezone Europe/Berlin (UTC+1.0)
Stats Elevation 1,043 ft / 318 m (AMSL)
Location 49.498700° 11.077600°
Runways 1
Magnetic Variation 3.178° E

METAR

EDDN 202120Z 11006KT CAVOK 02/M03 Q1034

Decode

TAF

TAF EDDN 201700Z 2018/2118 VRB03KT CAVOK BECMG 2106/2108 09006KT

Decode

Departure Runways

ID Width Length Bearing (true/mag) Surface Threshold Overrun Markings Lighting
10 148 ft / 45 m 8,835 ft / 2,693 m 98.58° / 95.41° ASPHALT 0 ft / 0 m 102 ft / 31 m PREC-APP CENTERLINE EDGE THRESHOLD ALSF-I REIL-OMNI
28 148 ft / 45 m 8,835 ft / 2,693 m 278.61° / 275.43° ASPHALT 0 ft / 0 m 108 ft / 33 m PREC-APP CENTERLINE EDGE THRESHOLD ALSF-II TDZ REIL-OMNI

LOWI

Details ICAO LOWI (INN)
Name Innsbruck
Region Austria
Timezone Europe/Vienna (UTC+1.0)
Stats Elevation 1,905 ft / 581 m (AMSL)
Location 47.260200° 11.344000°
Runways 1
Magnetic Variation 3.170° E

METAR

LOWI 202120Z VRB01KT CAVOK 02/M03 Q1034 NOSIG

Decode

TAF

TAF LOWI 201715Z 2018/2118 08006KT CAVOK TX13/2114Z TNM01/2104Z BECMG 2018/2020 27005KT BECMG 2108/2110 10010KT FEW070

Decode

Destination Runways

ID Width Length Bearing (true/mag) Surface Threshold Overrun Markings Lighting
08 148 ft / 45 m 6,545 ft / 1,995 m 80.93° / 77.76° ASPHALT 338 ft / 103 m 0 ft / 0 m PREC-APP CENTERLINE EDGE THRESHOLD REIL-OMNI
26 148 ft / 45 m 6,545 ft / 1,995 m 260.95° / 257.78° ASPHALT 0 ft / 0 m 0 ft / 0 m PREC-APP CENTERLINE EDGE THRESHOLD MALS REIL-OMNI

Approach Navaids

Runway Type Ident Frequency Range Bearing (true/mag) Slope Elevation
26 DME OEJ 109.70 MHz 30 nm / 56 km - - 1,906 ft / 581 m (AMSL)
26 DME OEV 111.10 MHz 27 nm / 50 km - - 1,911 ft / 582 m (AMSL)
26 LOC-ILS OEV 111.10 MHz 27 nm / 50 km 261.03° / 257.86 ° - 1,906 ft / 581 m (AMSL)
26 LOC-LOC OEJ 109.70 MHz 30 nm / 56 km 69.00° / 65.83 ° - 1,906 ft / 581 m (AMSL)
26 GS OEV 111.10 MHz 18 nm / 33 km 261.03° / 257.86 ° 3.50° 1,911 ft / 582 m (AMSL)
26 OM OM - - 105.00° / 101.83 ° - 6,726 ft / 2,050 m (AMSL)
26 MM MM - - 256.00° / 252.83 ° - 1,906 ft / 581 m (AMSL)

Popular Alternatives